Location: Unspecified
(0.0000°N, 0.0000°E)
Time: 07:10:25
(UTC+00:00)

Vanguard 1 - Pass Details

Date: 17 December 2017
Orbit: 650 x 3833 km, 34.2° (Epoch: 19 July)

Event Time Altitude Azimuth Distance (km) Brightness Sun altitude
Rises 15:08:07 0° 320° (NW) 5,050 13.8 37.9°
Reaches altitude 10° 15:12:44 10° 332° (NNW) 3,502 13.0 36.9°
Maximum altitude 15:19:12 26° 25° (NNE) 1,867 11.3 35.5°
Drops below altitude 10° 15:23:39 10° 82° (E) 2,350 11.6 34.6°
Sets 15:26:05 0° 96° (E) 3,107 12.2 34.0°
